Location: Kings Park
(40.8862°N, 73.2573°W)
Time: 06:07:00
(UTC+00:00)

Lacrosse 5 - Pass Details

Date: 29 October 2020
Orbit: 716 x 723 km, 57.0° (Epoch: 06 November)

Event Time Altitude Azimuth Distance (km) Brightness Sun altitude
Rises 23:09:52 0° 313° (NW) 3,123 5.8 -15.2°
Reaches altitude 10° 23:13:31 10° 340° (NNW) 2,203 4.6 -15.9°
Maximum altitude 23:16:02 14° 10° (N) 1,966 4.0 -16.4°
Enters shadow 23:17:47 12° 32° (NNE) 2,085 3.9 -16.7°
